Find Starlink 31560

NORAD ID: 59361 Int'l Des: 2024-060 Owner: SPXS Country: US Constellation: starlink operational
LEOCIRCULAR

リアルタイム位置

3D地球を読み込み中...

Starlink 31560について

説明を読み込み中...

次回通過

Passes for default location (London). Set your location on the main map for personalized predictions.

高度履歴

Loading altitude history...

軌道要素

1 59361U 24060P 26126.76990924 -.00002284 00000-0 -73588-4 0 9992
2 59361 42.9996 292.0009 0000622 223.9152 136.1651 15.27550161118940
Epoch: May 6, 2026 • Age: 18 hours

現在のステータス

高度 495.9 km
速度 7.62 km/s
衛星直下点 -42.53°S, 127.15°E
打ち上げ日 Mar 31, 2024
運用期間 2 years
タイプ internet

技術仕様

分類 Payload
質量 730.00 kg
乾燥質量 700.00 kg
総質量 730.00 kg
長さ 0.30 m
直径 4.10 m
スパン 29.00 m
形状 Box + pan
製造者 SPXS
バスタイプ Starlink V2M
フェーズステータス In Orbit
所有者/国 SPXS/US

Most Searched